EW7535 Weather Reports


Display with metric or nautical units.
time (UTC)temp
F
wind
direction
speed
MPH
gust
MPH
rain 1hr
in
rain 24hr
in
rain mn
in
humidity
%
barometer
mb
20260906161537 86 139 0.0 4.0 0.00 0.00 0.00 45 1008.3
20260906160053 85 129 0.0 3.0 0.00 0.00 0.00 46 1008.2
20260906154551 84 129 0.0 0.0 0.00 0.00 0.00 48 1008.1
20260906153104 83 105 0.0 0.0 0.00 0.00 0.00 49 1008.3
20260906151542 82 86 0.0 2.0 0.00 0.00 0.00 50 1008.4
20260906150041 81 91 0.0 3.0 0.00 0.00 0.00 53 1008.5
20260906144540 81 99 0.0 0.0 0.00 0.00 0.00 53 1008.6
20260906143037 79 99 0.0 0.0 0.00 0.00 0.00 56 1008.5
20260906141540 78 99 0.0 0.0 0.00 0.00 0.00 58 1008.3
20260906140036 77 99 0.0 0.0 0.00 0.00 0.00 58 1008.1
20260906134532 77 99 0.0 0.0 0.00 0.00 0.00 58 1007.9
20260906133002 77 99 0.0 0.0 0.00 0.00 0.00 56 1007.8
20260906131502 78 99 0.0 0.0 0.00 0.00 0.00 55 1007.7
20260906124559 78 105 0.0 4.0 0.00 0.00 0.00 56 1007.8
20260906123105 77 96 0.0 3.0 0.00 0.00 0.00 57 1007.6
20260906121556 76 103 0.0 0.0 0.00 0.00 0.00 61 1007.7
20260906120053 77 103 0.0 0.0 0.00 0.00 0.00 61 1007.3
20260906114552 77 136 0.0 0.0 0.00 0.00 0.00 61 1007.2
20260906113049 77 136 0.0 0.0 0.00 0.00 0.00 60 1007.1
20260906111551 78 136 0.0 0.0 0.00 0.00 0.00 60 1007.1
20260906110017 78 136 0.0 0.0 0.00 0.00 0.00 60 1007.0
20260906104517 78 136 0.0 0.0 0.00 0.00 0.00 59 1006.9
20260906103016 77 148 0.0 2.0 0.00 0.00 0.00 59 1006.8
20260906101514 77 74 0.0 0.0 0.00 0.00 0.00 61 1006.7
20260906100023 77 74 0.0 0.0 0.00 0.00 0.00 60 1006.7
20260906094510 77 74 0.0 0.0 0.00 0.00 0.00 60 1006.7
20260906093109 78 74 0.0 0.0 0.00 0.00 0.00 58 1006.6
20260906091537 78 74 0.0 0.0 0.00 0.00 0.00 58 1006.7
20260906090047 78 74 0.0 0.0 0.00 0.00 0.00 57 1006.8
20260906084504 80 74 0.0 0.0 0.00 0.00 0.00 53 1006.7
20260906083004 79 106 0.0 0.0 0.00 0.00 0.00 54 1006.8
20260906081557 79 106 0.0 0.0 0.00 0.00 0.00 56 1006.9
20260906080054 81 106 0.0 0.0 0.00 0.00 0.00 54 1007.0
20260906074550 82 106 0.0 0.0 0.00 0.00 0.00 50 1007.0
20260906073048 81 106 0.0 0.0 0.00 0.00 0.00 51 1007.1
20260906071544 82 106 0.0 0.0 0.00 0.00 0.00 50 1007.2
20260906070045 82 106 0.0 0.0 0.00 0.00 0.00 50 1007.2
20260906064544 83 106 0.0 0.0 0.00 0.00 0.00 48 1007.1
20260906063043 84 106 0.0 0.0 0.00 0.00 0.00 47 1007.2
20260906061546 85 106 0.0 0.0 0.00 0.00 0.00 44 1007.2
20260906060050 87 294 0.0 4.0 0.00 0.00 0.00 41 1007.1
20260906054544 87 288 2.0 8.0 0.00 0.00 0.00 40 1007.2
20260906053039 88 293 4.0 6.0 0.00 0.00 0.00 40 1007.2
20260906051537 88 295 4.0 10.0 0.00 0.00 0.00 40 1007.3
20260906050035 88 294 3.0 6.0 0.00 0.00 0.00 40 1007.4
20260906044535 89 281 4.0 8.0 0.00 0.00 0.00 39 1007.3
20260906043035 89 309 4.0 9.0 0.00 0.00 0.00 39 1007.3
20260906041503 89 305 3.0 8.0 0.00 0.00 0.00 39 1007.3
20260906040002 89 307 4.0 11.0 0.00 0.00 0.00 39 1007.4
20260906034605 89 288 6.0 10.0 0.00 0.00 0.00 39 1007.3
20260906033059 90 305 5.0 9.0 0.00 0.00 0.00 39 1007.1
20260906031558 90 289 6.0 10.0 0.00 0.00 0.00 39 1006.9
20260906030058 90 316 4.0 13.0 0.00 0.00 0.00 39 1006.8
20260906024557 90 297 5.0 12.0 0.00 0.00 0.00 39 1006.6
20260906023055 90 295 3.0 8.0 0.00 0.00 0.00 39 1006.5
20260906021559 91 293 2.0 9.0 0.00 0.00 0.00 38 1006.3
20260906020052 91 323 3.0 9.0 0.00 0.00 0.00 37 1006.3
20260906014552 91 261 6.0 11.0 0.00 0.00 0.00 37 1006.3
20260906013050 92 230 6.0 14.0 0.00 0.00 0.00 37 1006.2
20260906011548 93 304 7.0 13.0 0.00 0.00 0.00 36 1006.2
20260906010113 93 283 9.0 15.0 0.00 0.00 0.00 36 1006.4
20260906004556 94 285 9.0 17.0 0.00 0.00 0.00 35 1006.2
20260906003046 94 270 8.0 16.0 0.00 0.00 0.00 35 1006.2
20260906001559 95 302 7.0 17.0 0.00 0.00 0.00 35 1006.2
20260906000044 95 285 9.0 17.0 0.00 0.00 0.00 35 1006.2
20260905234540 95 297 8.0 19.0 0.00 0.00 0.00 35 1006.2
20260905233040 96 294 9.0 15.0 0.00 0.00 0.00 34 1006.2
20260905231537 96 298 9.0 16.0 0.00 0.00 0.00 32 1006.3
20260905230039 96 283 6.0 14.0 0.00 0.00 0.00 33 1006.4
20260905224533 96 261 6.0 14.0 0.00 0.00 0.00 32 1006.4
20260905223045 95 266 9.0 17.0 0.00 0.00 0.00 33 1006.5
20260905221529 96 326 6.0 12.0 0.00 0.00 0.00 33 1006.7
20260905220026 95 306 11.0 23.0 0.00 0.00 0.00 34 1006.8
20260905214554 95 281 4.0 15.0 0.00 0.00 0.00 34 1007.0
20260905213103 94 302 6.0 22.0 0.00 0.00 0.00 34 1007.2
20260905211548 95 261 5.0 11.0 0.00 0.00 0.00 35 1007.3
20260905210057 95 284 5.0 9.0 0.00 0.00 0.00 35 1007.6
20260905204545 95 298 7.0 12.0 0.00 0.00 0.00 36 1007.7
20260905203041 94 255 3.0 10.0 0.00 0.00 0.00 36 1008.0
20260905201535 93 269 2.0 12.0 0.00 0.00 0.00 38 1008.3
20260905200101 94 286 2.0 11.0 0.00 0.00 0.00 38 1008.4
20260905194531 93 286 5.0 14.0 0.00 0.00 0.00 38 1008.6
20260905193036 93 274 4.0 11.0 0.00 0.00 0.00 40 1008.8
20260905191533 93 271 4.0 15.0 0.00 0.00 0.00 39 1009.0
20260905191529 93 274 4.0 15.0 0.00 0.00 0.00 39 1009.0
20260905190026 92 291 4.0 9.0 0.00 0.00 0.00 40 1009.2
20260905184533 92 290 5.0 10.0 0.00 0.00 0.00 41 1009.5
20260905183031 91 279 4.0 9.0 0.00 0.00 0.00 43 1009.7
20260905181518 90 275 6.0 11.0 0.00 0.00 0.00 43 1009.8
20260905180049 90 247 3.0 10.0 0.00 0.00 0.00 46 1009.9
20260905174545 88 269 2.0 6.0 0.00 0.00 0.00 47 1010.0
20260905173018 88 307 1.0 8.0 0.00 0.00 0.00 48 1010.1
20260905171515 88 292 0.0 3.0 0.00 0.00 0.00 49 1010.2
20260905170010 88 292 0.0 5.0 0.00 0.00 0.00 48 1010.4
20260905164512 88 304 0.0 3.0 0.00 0.00 0.00 48 1010.4
20260905163006 88 148 0.0 2.0 0.00 0.00 0.00 51 1010.5